This demonstration page uses our WeatherBlox Daily Observations layout. Learn more.

Left ArrowRight Arrow

38.83388, -104.82136

Hourly Observations for January 4, 2022

Temp ( °F °C ) Dew Point ( °F °C ) Humidity (%) Winds ( mph kmh ) Pressure ( in mb ) Visibility ( mi km ) Precip ( " mm )
12:54 am 00:54 Mostly Clear 39 3.9 8 -13.3 28 28 N 5 7 29.75 1007 10 16 0.00 0.00
1:54 am 01:54 Mostly Clear 41 5 7 -13.9 24 24 Calm 29.72 1006 10 16 0.00 0.00
2:54 am 02:54 Partly Cloudy 40 4.4 6 -14.4 24 24 N 10 17 29.73 1007 10 16 0.00 0.00
3:54 am 03:54 Mostly Cloudy 48 8.9 1 -17.2 14 14 W 18 30 29.67 1005 10 16 0.00 0.00
4:54 am 04:54 Mostly Cloudy 45 7.2 1 -17.2 16 16 W 7 11 29.71 1006 10 16 0.00 0.00
5:54 am 05:54 Mostly Clear 49 9.4 -1 -18.3 12 12 NNW 15 24 29.70 1006 10 16 0.00 0.00
6:54 am 06:54 Mostly Cloudy 40 4.4 4 -15.6 22 22 E 5 7 29.72 1007 10 16 0.00 0.00
7:54 am 07:54 Mostly Cloudy 44 6.7 4 -15.6 19 19 N 14 22 29.74 1007 10 16 0.00 0.00
8:06 am 08:06 Mostly Cloudy 48 8.9 2 -16.7 15 15 undefined N/A 29.64 1004 10 16 0.00 0.00
8:54 am 08:54 Mostly Cloudy 49 9.4 0 -17.8 13 13 W 21 33 29.78 1008 10 16 0.00 0.00
9:54 am 09:54 Mostly Cloudy 50 10 5 -15 16 16 ESE 10 17 29.75 1007 10 16 0.00 0.00
10:40 am 10:40 Mostly Cloudy 55 13 0 -18 10 10 WNW 18 30 29.60 1002 10 16 0.00 0.00
10:54 am 10:54 Mostly Cloudy 54 12.2 -1 -18.3 10 10 NW 28 44 29.75 1007 10 16 0.00 0.00
11:54 am 11:54 Partly Cloudy 54 12.2 0 -17.8 11 11 WNW 24 39 29.75 1008 10 16 0.00 0.00
12:54 pm 12:54 Partly Cloudy 53 11.7 1 -17.2 12 12 NW 21 33 29.73 1007 10 16 0.00 0.00
1:54 pm 13:54 Partly Cloudy 55 12.8 3 -16.1 12 12 WNW 14 22 29.73 1007 10 16 0.00 0.00
2:54 pm 14:54 Partly Cloudy 53 11.7 3 -16.1 13 13 NW 25 41 29.75 1008 10 16 0.00 0.00
3:54 pm 15:54 Partly Cloudy 51 10.6 5 -15 15 15 N 14 22 29.75 1008 10 16 0.00 0.00
4:54 pm 16:54 Partly Cloudy 47 8.3 7 -13.9 19 19 NNW 16 26 29.80 1009 10 16 0.00 0.00
5:54 pm 17:54 Partly Cloudy 45 7.2 8 -13.3 22 22 NW 16 26 29.84 1010 10 16 0.00 0.00
6:54 pm 18:54 Mostly Clear 45 7.2 8 -13.3 22 22 NW 22 35 29.88 1012 10 16 0.00 0.00
7:54 pm 19:54 Mostly Clear 43 6.1 7 -13.9 22 22 SW 8 13 29.88 1012 10 16 0.00 0.00
8:54 pm 20:54 Partly Cloudy 41 5 8 -13.3 25 25 E 8 13 29.91 1013 10 16 0.00 0.00
9:54 pm 21:54 Mostly Clear 43 6.1 8 -13.3 24 24 NNW 21 33 29.88 1012 10 16 0.00 0.00
10:54 pm 22:54 Clear 41 5 9 -12.8 27 27 NNW 16 26 29.87 1012 10 16 0.00 0.00
11:54 pm 23:54 Clear 35 1.7 10 -12.2 35 35 W 10 17 29.90 1013 10 16 0.00 0.00

Powered by AerisWeather